Regional Weather Roundup
Issued by NWS Charleston, SC

Home | Current Version | Previous Version | Text Only | Print | Product List | Glossary On
Versions: 1 2 3 4 5 6 7 8 9 10 11 12 13 14 15 16 17 18 19 20 21 22 23 24 25 26 27 28 29 30 31 32 33 34 35 36 37 38 39 40 41 42 43 44 45 46 47 48 49 50
000
ASUS42 KCHS 290327
RWRCHS

REGIONAL WEATHER ROUNDUP
NATIONAL WEATHER SERVICE CHARLESTON SC
1100 PM EDT SUN MAY 28 2017

NOTE: "FAIR" INDICATES FEW OR NO CLOUDS BELOW 12,000 FEET WITH NO
SIGNIFICANT WEATHER AND/OR OBSTRUCTIONS TO VISIBILITY.

NOT ALL STATIONS ARE QUALITY CONTROLLED. USE DATA WITH CAUTION...
ESPECIALLY DEWPOINT OBSERVATIONS.

SCZ027-030-031-034>040-042>050-290400-
...SOUTHEAST SOUTH CAROLINA...

CITY           SKY/WX    TMP DP  RH WIND       PRES   REMARKS
N CHARLESTON   PTCLDY    77  73  87 S9        29.90R
WATERFRONT PRK   N/A     79  76  91 SW7       29.88R
JOHNS ISLAND   FAIR      79  75  89 S9        29.91S
PINOPOLIS        N/A     81  73  78 VRB2      29.82R
MONCKS CORNER  FAIR      75  72  88 CALM      29.90R
SUMMERVILLE    FAIR      77  72  83 S3        29.90S
BEAUFORT MCAS  CLEAR     79  71  76 SW5       29.91R
BEAUFORT ARPT  FAIR      79  73  83 S7        29.91S
HILTON HEAD IS CLEAR     81  77  89 S6        29.92S
WALTERBORO     CLEAR     77  70  78 SW3       29.91S
ALLENDALE      FAIR      79  68  69 CALM      29.89S

...SOUTHERN MIDLANDS AND PEE DEE...

CITY           SKY/WX    TMP DP  RH WIND       PRES   REMARKS
GEORGETOWN     MOCLDY    75  73  94 E3        29.91R
KINGSTREE      FAIR     N/A N/A N/A CALM      29.89S
ORANGEBURG     CLEAR     75  71  87 CALM      29.90R
BARNWELL       FAIR      79  72  78 CALM      29.91R
AIKEN          FAIR      73  70  88 W5        29.95R
MANNING        FAIR      75  73  94 NW13G30   29.89S
COLUMBIA       PTCLDY    75  70  84 W5        29.88R
SUMTER         PTCLDY    73  70  91 CALM      29.86R
FLORENCE       CLOUDY    71  70  96 SW3       29.88R
MYRTLE BEACH   CLOUDY    73  69  87 W5        29.91R
N MYRTLE BEACH CLOUDY    72  68  87 W8        29.89R

$$

GAZ063-065-086>088-099>101-113>116-118-119-134>141-150-290400-
...SOUTHEAST GEORGIA...

CITY           SKY/WX    TMP DP  RH WIND       PRES   REMARKS
SAVANNAH ARPT  CLEAR     78  68  71 S3        29.92R
HUNTER AAF     PTCLDY    78  72  81 CALM      29.89S
FORT STEWART   PTCLDY    76  68  77 CALM      29.90R
STATESBORO     PTCLDY    74  72  91 CALM      29.92R
SYLVANIA       PTCLDY    75  72  88 CALM      29.92S
CLAXTON        FAIR      73  73 100 CALM      29.93R

...CSRA...CENTRAL AND FAR SOUTHEAST GEORGIA...

CITY           SKY/WX    TMP DP  RH WIND       PRES   REMARKS
THOMSON        CLEAR     72  68  89 CALM      29.97R
AUGUSTA-BUSH   CLEAR     77  70  79 SW3       29.89R
AUGUSTA-DANIEL CLEAR     83  63  50 W8        29.91R
SWAINSBORO     FAIR      77  70  78 W5        29.93S
VIDALIA        PTCLDY    81  68  65 W3        29.94R
EASTMAN        FAIR      81  58  46 W6        29.98R
HAZLEHURST     FAIR      78  72  83 CALM      29.94R
ALMA           CLOUDY    83  68  60 SW6       29.94R
WAYCROSS       CLOUDY    83  77  81 SW7       29.95R HX  93
JESUP          FAIR      77  64  65 SW3       29.95R
BAXLEY         FAIR      79  72  78 SW5       29.95R
BRUNSWICK      CLEAR     81  72  74 SW12      29.95R
SAINT SIMONS   PTCLDY    82  75  79 CALM      29.93R

$$

SCZ027-028-034-036>038-045-046-048>050-GAZ119-141-290400-
...LAKE AND SUPPLEMENTAL COASTAL OBSERVATIONS...

STATION/POSITION TIME  TEMP    WIND        PRES    WAVE   SWELL
                       AIR SEA DIR/SP/G            HT/PER HT/PER/DIR
                 (UTC) (F)     (DEG/KT/KT) (MB)    (FT/S) (FT/S/D)
WINYAH BAY       0245   78      10/  4     1013.0R
LAKE MURRAY      0320   77     250/  3/  6 1011.2
ACE BASIN NERRS  0230   77        CALM     1013.0R
FORT PULASKI     0300   80     210/  3/  7 1013.4
SAPELO ISLAND    0300   79     160/  1     1014.0

$$

ANZ835-935-AMZ111-154-330-350-352-354-370-450-454-472-290400-
...C-MAN AND BUOY OBSERVATIONS...

STATION/POSITION TIME  TEMP    WIND        PRES    WAVE   SWELL
                       AIR SEA DIR/SP/G            HT/PER HT/PER/DIR
                 (UTC) (F)     (DEG/KT/KT) (MB)    (FT/S) (FT/S/D)
BUOY 41004       0310   78 76  220/ 14/ 17 1012.5
BUOY 41008       0250   79 78  180/ 12/ 16 1013.2R   2/ 4   2/110/ 7
FOLLY BEACH CMAN 0300   78     210/ 12/ 14 1013.4R
CAPERS NEARSHORE 0308   81 78  220/ 14/ 19 1012.1S
FRIPP NEARSHORE  0308   79 79  210/ 14/ 17 1012.5R


STATION/POSITION TIME  TEMP    WIND        PRES    WAVE   SWELL
                       AIR SEA DIR/SP/G            HT/PER HT/PER/DIR
                 (UTC) (F)     (DEG/KT/KT) (MB)    (FT/S) (FT/S/D)
5E ST. MARYS GA  0300      79                N/A     2/ 3
FRYING PAN BUOY  0310   77 75  220/ 16/ 17 1012.0
BUOY 41025       0250   77 76  240/ 21/ 25 1009.3R   5/ 6
CAPE LOOKOUT NC  0300   75     230/ 13/ 18 1010.7R
BUOY 41002       0250   77 77  210/ 14/ 16 1014.6R   4/ 6   2/150/ 8
BUOY 41010       0310   80 80  200/ 12/ 14 1015.5
ST AUGUSTINE FL  0300   78 78  220/  6/  7 1015.4R


$$




USA.gov is the U.S. government's official web portal to all federal, state and local government web resources and services.